[[{"header":{"parameterUnit":"m.s-1","parameterCategory":1,"la1":30.2991,"la2":30.254,"lo1":-89.0895,"lo2":-89.0444,"dy":0.0017,"dx":0.0017,"nx":28,"ny":28,"refTime":"2024-03-12T09:00:00:Z","depth":0,"parameterNumber":2,"parameterNumberName":"U-component_of_WINDS"},"data":[0,0,0,0,0,0,0,0,0,0,0,0,0,0,0,0,0,0,0,0,0,0,0,0,0,0,0,0,0,0,0,0,0,0,0,0,0,0,0,0,0,0,0,0,0,0,0,0,0,0,0,0,0,0,0,0,0,0,-0.2652,-0.2652,0,-0.2653,-0.2653,-0.2653,-0.2657,-0.2657,-0.2657,-0.2657,-0.2659,-0.2659,-0.2659,0,0,0,0,0,0,0,0,0,0,0,0,0,-0.2655,-0.2655,-0.2652,-0.2652,-0.2652,-0.2653,-0.2653,-0.2653,-0.2657,-0.2657,-0.2657,-0.2658,-0.2659,-0.2659,-0.2659,0,0,0,0,0,0,0,0,0,0,0,0,0,-0.2655,-0.2655,-0.2652,-0.2654,-0.2654,-0.2653,-0.2653,-0.2653,-0.2657,-0.2657,-0.2657,-0.2658,-0.2659,-0.2659,-0.2659,-0.2656,0,0,-0.2659,-0.2659,0,0,0,0,0,0,0,0,-0.2655,-0.2655,-0.2654,-0.2654,-0.2654,-0.2655,-0.2655,-0.2654,-0.2657,-0.2656,-0.2657,-0.2658,-0.2658,-0.2658,-0.2658,-0.2656,-0.2656,-0.2659,-0.2659,-0.2659,-0.2659,0,0,0,0,0,0,0,-0.2655,-0.2655,-0.2652,-0.2654,-0.2654,-0.2656,-0.2656,-0.2655,-0.2656,-0.2656,-0.2657,-0.2657,-0.2658,-0.2658,-0.2658,-0.2656,-0.2659,-0.2659,-0.2659,-0.2659,-0.2653,-0.2653,0,0,0,0,0,0,-0.2654,-0.2655,-0.2652,-0.2652,-0.2655,-0.2655,-0.2656,-0.2655,-0.2656,-0.2657,-0.2656,-0.2657,-0.2658,-0.2658,-0.2658,-0.2655,-0.2659,-0.2659,-0.2659,-0.2653,-0.2653,-0.2653,0,0,0,0,0,0,-0.2654,-0.2654,-0.2652,-0.2654,-0.2654,-0.2655,-0.2654,-0.2655,-0.2654,-0.2656,-0.2657,-0.2656,-0.2658,-0.2658,-0.2657,-0.2655,-0.2659,-0.2659,-0.2653,-0.2653,-0.2653,-0.2648,0,0,0,0,0,0,-0.2655,-0.2654,-0.2652,-0.2654,-0.2653,-0.265,-0.2654,-0.2655,-0.2654,-0.2655,-0.2656,-0.2656,-0.2658,-0.2657,-0.2656,-0.2655,-0.2659,-0.2653,-0.2653,-0.2653,-0.2649,-0.2648,-0.2647,0,0,0,0,0,-0.2655,-0.2651,-0.2652,-0.2652,-0.2651,-0.265,-0.265,-0.2652,-0.2654,-0.2653,-0.2654,-0.2656,-0.2655,-0.2656,-0.2656,-0.2655,-0.2653,-0.2653,-0.2653,-0.2649,-0.2648,-0.2647,0,0,0,0,0,0,-0.265,-0.2651,-0.2653,-0.2649,-0.265,-0.2651,-0.2649,-0.2651,-0.2651,-0.2652,-0.2654,-0.2655,-0.2653,-0.2654,-0.2655,-0.2652,-0.2655,-0.2654,-0.2652,-0.2651,-0.265,-0.265,-0.2659,0,0,0,0,0,-0.2648,-0.2647,-0.2648,-0.2645,-0.2645,-0.2647,-0.2647,-0.2649,-0.2649,-0.2649,-0.2651,-0.2651,-0.2651,-0.2651,-0.2651,-0.2649,-0.265,-0.2648,-0.2647,-0.2647,-0.2646,-0.2646,-0.2646,-0.2652,-0.2652,-0.2652,0,0,-0.2645,-0.2646,-0.2645,-0.2644,-0.2645,-0.2644,-0.2647,-0.2646,-0.2646,-0.2649,-0.2648,-0.2649,-0.265,-0.2649,-0.2648,-0.2649,-0.2645,-0.2646,-0.2646,-0.2646,-0.2646,-0.2645,-0.2645,-0.2652,-0.2652,-0.2652,0,0,-0.2639,-0.2639,-0.2637,-0.2638,-0.2638,-0.264,-0.2639,-0.2641,-0.2642,-0.264,-0.2643,-0.2643,-0.2643,-0.2644,-0.2644,-0.264,-0.2642,-0.264,-0.2637,-0.2637,-0.2636,-0.2636,-0.2635,-0.2634,-0.264,-0.264,-0.264,0,-0.2635,-0.2634,-0.2636,-0.2635,-0.2635,-0.2638,-0.2636,-0.2637,-0.2638,-0.2638,-0.2639,-0.264,-0.2641,-0.264,-0.2639,-0.2639,-0.2639,-0.264,-0.2636,-0.2636,-0.2635,-0.2634,-0.2634,-0.2639,-0.2639,-0.2639,-0.2639,0,-0.2629,-0.2628,-0.2627,-0.2627,-0.2627,-0.2626,-0.2628,-0.2628,-0.263,-0.2632,-0.2631,-0.2632,-0.2633,-0.2633,-0.2635,-0.2633,-0.2634,-0.2635,-0.2638,-0.2634,-0.2634,-0.2633,-0.2639,-0.2639,-0.2639,-0.2639,0,0,-0.262,-0.2622,-0.2622,-0.2622,-0.2624,-0.2624,-0.2623,-0.2623,-0.2624,-0.2624,-0.2624,-0.2624,-0.2626,-0.2627,-0.2629,-0.2629,-0.2626,-0.2631,-0.2631,-0.263,-0.2625,-0.2623,-0.2623,-0.2628,-0.2627,-0.2627,-0.2625,0,-0.2614,-0.2613,-0.2615,-0.2613,-0.2613,-0.2616,-0.2616,-0.2617,-0.2619,-0.2619,-0.2621,-0.2621,-0.2624,-0.2624,-0.2624,-0.2626,-0.2625,-0.2626,-0.2628,-0.2628,-0.2628,-0.2622,-0.2621,-0.2618,-0.2624,-0.2624,-0.2624,0,-0.2608,-0.2608,-0.2606,-0.2609,-0.2609,-0.2608,-0.261,-0.261,-0.2612,-0.2613,-0.2614,-0.2617,-0.2617,-0.2619,-0.262,-0.2621,-0.2622,-0.2623,-0.2623,-0.2623,-0.2626,-0.2623,-0.2617,-0.2617,-0.2624,-0.2624,-0.2624,0,-0.2602,-0.2602,-0.2601,-0.2602,-0.2604,-0.2604,-0.2605,-0.2607,-0.2608,-0.2609,-0.261,-0.2611,-0.2612,-0.2614,-0.2617,-0.2618,-0.2617,-0.262,-0.2619,-0.2619,-0.2618,-0.2618,-0.2613,-0.2619,-0.2619,-0.2619,-0.2619,0,-0.2596,-0.2594,-0.2598,-0.2598,-0.2597,-0.26,-0.2599,-0.2601,-0.2603,-0.2603,-0.2607,-0.2607,-0.2611,-0.2612,-0.2614,-0.2615,-0.2615,-0.2617,-0.2617,-0.2617,-0.2616,-0.2617,-0.2617,-0.2618,-0.2618,-0.2618,-0.2618,0,-0.2589,-0.2591,-0.2591,-0.2594,-0.2594,-0.2594,-0.2596,-0.2596,-0.2599,-0.2599,-0.2599,-0.2603,-0.2604,-0.2608,-0.261,-0.2612,-0.2612,-0.2613,-0.2611,-0.2611,-0.261,-0.2611,-0.2606,-0.2605,-0.2611,-0.2611,-0.2611,0,-0.2585,-0.2584,-0.2587,-0.2587,-0.2589,-0.2589,-0.259,-0.2593,-0.2594,-0.2597,-0.2597,-0.2598,-0.26,-0.2602,-0.2605,-0.2607,-0.2609,-0.2607,-0.2609,-0.2608,-0.2609,-0.2609,-0.2609,-0.2606,-0.2606,-0.2606,-0.2606,0,-0.2578,-0.2579,-0.258,-0.2582,-0.2582,-0.2584,-0.2585,-0.2586,-0.259,-0.2591,-0.2592,-0.2593,-0.2596,-0.2598,-0.26,-0.2602,-0.2605,-0.2605,-0.2605,-0.2604,-0.2604,-0.2605,-0.261,-0.2605,-0.2605,-0.2606,-0.2606,-0.2606,-0.2572,-0.2572,-0.2575,-0.2576,-0.2577,-0.2579,-0.2579,-0.2582,-0.2583,-0.2585,-0.2587,-0.2589,-0.2592,-0.2596,-0.2597,-0.2599,-0.26,-0.26,-0.26,-0.26,-0.26,-0.2603,-0.26,-0.26,-0.26,-0.26,-0.26,0,-0.2566,-0.2568,-0.2569,-0.2571,-0.2572,-0.2575,-0.2577,-0.2578,-0.2579,-0.2581,-0.2583,-0.2585,-0.2587,-0.2591,-0.2593,-0.2594,-0.2595,-0.2595,-0.2595,-0.2595,-0.2598,-0.2598,-0.2594,-0.2594,-0.2594,-0.2594,-0.2594,-0.2594,-0.2563,-0.2563,-0.2565,-0.2566,-0.2568,-0.257,-0.2571,-0.2573,-0.2575,-0.2577,-0.2579,-0.2581,-0.2584,-0.2587,-0.2589,-0.259,-0.2591,-0.259,-0.2591,-0.2594,-0.2595,-0.2595,-0.2595,-0.259,-0.259,-0.2588,-0.2588,-0.2588]},{"header":{"parameterUnit":"m.s-1","parameterCategory":1,"la1":30.2991,"la2":30.254,"lo1":-89.0895,"lo2":-89.0444,"dy":0.0017,"dx":0.0017,"nx":28,"ny":28,"refTime":"2024-03-12T09:00:00:Z","depth":0,"parameterNumber":3,"parameterNumberName":"V-component_of_WINDS"},"data":[0,0,0,0,0,0,0,0,0,0,0,0,0,0,0,0,0,0,0,0,0,0,0,0,0,0,0,0,0,0,0,0,0,0,0,0,0,0,0,0,0,0,0,0,0,0,0,0,0,0,0,0,0,0,0,0,0,0,2.3646,2.3647,0,2.3752,2.3753,2.3754,2.3766,2.3765,2.3764,2.3763,2.3867,2.387,2.3874,0,0,0,0,0,0,0,0,0,0,0,0,0,2.3447,2.3451,2.3646,2.3647,2.3648,2.3752,2.3753,2.3755,2.3766,2.3765,2.3764,2.3762,2.3866,2.387,2.3874,0,0,0,0,0,0,0,0,0,0,0,0,0,2.3541,2.3452,2.3645,2.3667,2.367,2.3752,2.3753,2.3755,2.3766,2.3765,2.3763,2.3762,2.3864,2.387,2.3875,2.3942,0,0,2.3892,2.3895,0,0,0,0,0,0,0,0,2.3536,2.3548,2.3662,2.3665,2.3669,2.3744,2.3721,2.3818,2.3767,2.3729,2.3763,2.3761,2.3827,2.3836,2.3859,2.3947,2.3951,2.3893,2.3896,2.3899,2.39,0,0,0,0,0,0,0,2.3529,2.3544,2.3688,2.3664,2.3668,2.3669,2.3681,2.374,2.3786,2.3733,2.3734,2.3746,2.3828,2.3853,2.3861,2.3953,2.3893,2.3898,2.3901,2.3903,2.4098,2.41,0,0,0,0,0,0,2.3519,2.3538,2.3684,2.3691,2.3597,2.3674,2.3687,2.3721,2.3785,2.3793,2.3748,2.3747,2.3845,2.3855,2.3865,2.3946,2.3899,2.3904,2.3907,2.4097,2.4099,2.4101,0,0,0,0,0,0,2.3515,2.3532,2.368,2.3615,2.3634,2.3679,2.3718,2.3724,2.375,2.3797,2.3804,2.3765,2.3844,2.3857,2.3923,2.395,2.3906,2.3912,2.4094,2.4097,2.41,2.411,0,0,0,0,0,0,2.3509,2.3531,2.3558,2.3616,2.3637,2.3737,2.372,2.3728,2.376,2.3759,2.3815,2.3823,2.3843,2.3914,2.3928,2.3957,2.3916,2.4092,2.4096,2.4099,2.4107,2.4112,2.4117,0,0,0,0,0,2.3502,2.3556,2.3559,2.3577,2.3673,2.3739,2.3751,2.3776,2.3762,2.3789,2.3819,2.3821,2.3945,2.3921,2.3937,2.3967,2.4091,2.4095,2.4099,2.4105,2.4111,2.4117,0,0,0,0,0,0,2.3499,2.3564,2.3568,2.3643,2.3685,2.3741,2.3776,2.3782,2.3828,2.3826,2.3852,2.3865,2.3929,2.3955,2.3927,2.4034,2.4016,2.4023,2.4015,2.4022,2.4027,2.4018,2.3921,0,0,0,0,0,2.3507,2.3558,2.3611,2.3671,2.3692,2.373,2.376,2.3775,2.382,2.3838,2.3872,2.3914,2.3962,2.3993,2.4041,2.4111,2.4122,2.414,2.4144,2.4148,2.4154,2.4191,2.4199,2.4114,2.4114,2.4114,0,0,2.3524,2.3566,2.3596,2.3671,2.3706,2.3756,2.3745,2.3799,2.3835,2.3845,2.3909,2.3936,2.3984,2.4052,2.4083,2.4075,2.418,2.4153,2.4156,2.416,2.4196,2.4204,2.4211,2.4117,2.4116,2.4116,0,0,2.3581,2.3618,2.3672,2.3707,2.376,2.3785,2.3797,2.3852,2.3871,2.3936,2.3944,2.3986,2.4069,2.4103,2.4131,2.4198,2.4201,2.4213,2.4238,2.4274,2.4281,2.4287,2.4309,2.4317,2.4219,2.4219,2.4219,0,2.3595,2.3672,2.3698,2.3751,2.3783,2.3796,2.3849,2.3881,2.3946,2.3967,2.3958,2.4061,2.4095,2.417,2.4186,2.4209,2.4223,2.4206,2.4278,2.4284,2.429,2.4312,2.4321,2.422,2.4219,2.4219,2.4219,0,2.3685,2.3738,2.3775,2.3839,2.3875,2.3928,2.396,2.3993,2.4005,2.4029,2.4094,2.4135,2.419,2.4208,2.422,2.4285,2.4278,2.4273,2.4255,2.4299,2.432,2.4329,2.4221,2.4221,2.422,2.422,0,0,2.3743,2.3821,2.3834,2.3862,2.3921,2.3962,2.4014,2.4069,2.4096,2.414,2.4183,2.4252,2.4248,2.428,2.4295,2.4326,2.4375,2.4317,2.4319,2.4325,2.4447,2.4449,2.4459,2.4378,2.4379,2.4381,2.4442,0,2.3806,2.3901,2.3926,2.4006,2.4054,2.4066,2.4111,2.4151,2.4175,2.4218,2.4244,2.4292,2.4283,2.4302,2.4334,2.4362,2.44,2.4358,2.4416,2.4418,2.4403,2.447,2.4474,2.453,2.4451,2.4452,2.4453,0,2.3891,2.3938,2.4024,2.4075,2.4096,2.4137,2.4188,2.4229,2.4274,2.4289,2.4324,2.4336,2.4388,2.4368,2.4439,2.4411,2.4436,2.4453,2.4456,2.4461,2.4438,2.4476,2.4549,2.4557,2.4467,2.4465,2.4465,0,2.3924,2.4008,2.407,2.4094,2.4156,2.4183,2.421,2.4253,2.4284,2.4328,2.4348,2.4398,2.4424,2.4461,2.4485,2.4468,2.4554,2.4536,2.4566,2.4566,2.4584,2.4582,2.466,2.4601,2.4601,2.4601,2.4601,0,2.399,2.4042,2.4085,2.4123,2.418,2.4206,2.4262,2.4288,2.4326,2.4368,2.4381,2.4419,2.4449,2.449,2.4509,2.4565,2.4577,2.4589,2.4593,2.4588,2.4586,2.4604,2.46,2.4603,2.4602,2.4602,2.4602,0,2.4036,2.4067,2.4135,2.4188,2.4202,2.4242,2.4286,2.4322,2.4347,2.4399,2.4413,2.445,2.45,2.4527,2.459,2.4602,2.4664,2.4666,2.4649,2.4651,2.4679,2.4676,2.477,2.4783,2.4717,2.4717,2.4718,0,2.4076,2.4116,2.4173,2.4203,2.423,2.4278,2.4309,2.4336,2.4368,2.4421,2.445,2.4501,2.4543,2.4621,2.4653,2.47,2.4703,2.4733,2.471,2.4703,2.4702,2.4699,2.4703,2.4737,2.4737,2.4738,2.4738,0,2.4144,2.4157,2.4203,2.4254,2.4292,2.4333,2.4374,2.4396,2.4429,2.4464,2.4516,2.4549,2.4612,2.4662,2.4711,2.4736,2.4742,2.4745,2.4755,2.4749,2.4737,2.4742,2.4659,2.4743,2.4742,2.4742,2.4742,2.4742,2.4188,2.4223,2.4269,2.4319,2.4352,2.439,2.4426,2.4454,2.4498,2.4553,2.4566,2.462,2.4661,2.4728,2.4755,2.4796,2.479,2.4804,2.4807,2.481,2.481,2.4731,2.4805,2.4805,2.4805,2.4805,2.4805,0,2.4255,2.4285,2.4331,2.4387,2.4426,2.443,2.4474,2.4506,2.4554,2.4593,2.4634,2.4692,2.4739,2.4775,2.4823,2.4849,2.4852,2.486,2.4858,2.4864,2.4814,2.48,2.4856,2.4856,2.4856,2.4856,2.4856,2.4856,2.4295,2.4354,2.4373,2.4448,2.4477,2.4531,2.4556,2.4589,2.462,2.4685,2.4725,2.4748,2.4785,2.4836,2.4879,2.4888,2.4904,2.4912,2.492,2.4873,2.4867,2.4862,2.485,2.4915,2.4915,2.4967,2.4967,2.4968]}]]